Location: Eitze
(52.9840°N, 9.6894°E)
Time: 23:32:18
(UTC+00:00)

Cosmos 1842 - Pass Details

Date: 19 May 2025
Orbit: 439 x 450 km, 82.5° (Epoch: 22 June)

Event Time Altitude Azimuth Distance (km) Brightness Sun altitude
Exits shadow 22:06:29 22° 114° (ESE) 1,048 4.4 -15.4°
Maximum altitude 22:07:21 24° 90° (E) 980 4.4 -15.5°
Drops below altitude 10° 22:10:13 10° 35° (NE) 1,601 6.2 -15.6°
Sets 22:12:32 0° 21° (NNE) 2,481 7.6 -15.7°
